Williston, ND

7:11 PM CST on December 12, 2019 (GMT -0600)
Sloulin International

Weather History for KISN - August, 2019

Change the Weather History Date:

Friday, August 30, 2019

  Actual Average Record
Temperature  
Mean Temperature 59 °F 64 °F  
Max Temperature 76 °F 79 °F 97 °F (1973)
Min Temperature 42 °F 50 °F 37 °F (1935)
Degree Days  
Heating Degree Days 6 3  
Month to date heating degree days 33 45  
Since 1 June heating degree days 118 189  
Since 1 July heating degree days 48 69  
Cooling Degree Days 0 3  
Month to date cooling degree days 133 163  
Year to date cooling degree days 377 426  
Since 1 June cooling degree days 371 413  
Growing Degree Days 10 (Base 50)    
Moisture  
Dew Point 46 °F    
Average Humidity 64    
Maximum Humidity 92    
Minimum Humidity 36    
Precipitation  
Precipitation 0.00 in 0.05 in 0.96 in (1952)
Month to date precipitation 1.96 1.41  
Year to date precipitation 11.62 11.08  
Sea Level Pressure  
Sea Level Pressure 30.15 in    
Wind  
Wind Speed 8 mph (East)    
Max Wind Speed 17 mph    
Max Gust Speed 31 mph    
Visibility 10 miles    
Events      
T = Trace of Precipitation, MM = Missing Value Source: NWS Daily Summary

Daily Weather History Graph

Daily Weather History Graph

Search for Another Location

Airport or City:

Astronomy

Aug. 30, 2019 Rise Set
Actual Time 7:09 AM CDT 8:40 PM CDT
Civil Twilight 6:36 AM CDT 9:12 PM CDT
Nautical Twilight 5:57 AM CDT 9:51 PM CDT
Astronomical Twilight 5:14 AM CDT 10:34 PM CDT
Moon 7:08 AM CDT (8/30) 9:18 PM CDT (8/30)
Length of Visible Light 14h 35m
Length of Day
13h 30m
New Moon, 0% of the Moon is Illuminated
Aug 30
New Moon
Sep 5
First Quarter
Sep 13
Full
Sep 21
Last Quarter
Sep 28
New

Hourly Weather History & Observations

Time (CDT) Temp. Windchill Dew Point Humidity Pressure Visibility Wind Dir Wind Speed Gust Speed Precip Events Conditions
12:52 AM 54.0 °F - 45.0 °F 72% 30.15 in 10.0 mi North 3.5 mph - N/A   Clear
1:52 AM 52.0 °F - 44.1 °F 74% 30.16 in 10.0 mi Calm Calm - N/A   Partly Cloudy
2:52 AM 50.0 °F - 45.0 °F 83% 30.16 in 10.0 mi NNE 4.6 mph - N/A   Clear
3:52 AM 45.0 °F - 41.0 °F 86% 30.17 in 10.0 mi Calm Calm - N/A   Clear
4:52 AM 48.0 °F - 43.0 °F 83% 30.17 in 10.0 mi NNE 3.5 mph - N/A   Clear
5:52 AM 46.9 °F - 43.0 °F 86% 30.18 in 10.0 mi NE 3.5 mph - N/A   Clear
6:52 AM 45.0 °F 43.5 °F 42.1 °F 90% 30.19 in 10.0 mi NNE 3.5 mph - N/A   Clear
7:52 AM 46.0 °F 43.9 °F 43.0 °F 89% 30.19 in 10.0 mi NNE 4.6 mph - N/A   Clear
8:52 AM 52.0 °F - 45.0 °F 77% 30.20 in 10.0 mi ENE 3.5 mph - N/A   Clear
9:52 AM 59.0 °F - 46.9 °F 64% 30.19 in 10.0 mi NE 6.9 mph - N/A   Clear
10:52 AM 64.9 °F - 46.0 °F 50% 30.19 in 10.0 mi SSE 8.1 mph - N/A   Clear
11:52 AM 68.0 °F - 46.9 °F 47% 30.18 in 10.0 mi SE 11.5 mph - N/A   Clear
12:52 PM 71.1 °F - 45.0 °F 39% 30.17 in 10.0 mi SE 10.4 mph - N/A   Scattered Clouds
1:52 PM 72.0 °F - 45.0 °F 38% 30.14 in 10.0 mi ESE 6.9 mph - N/A   Mostly Cloudy
2:52 PM 75.0 °F - 46.0 °F 36% 30.12 in 10.0 mi East 9.2 mph - N/A   Clear
3:52 PM 75.0 °F - 46.0 °F 36% 30.12 in 10.0 mi ESE 8.1 mph - N/A   Mostly Cloudy
4:52 PM 73.9 °F - 48.0 °F 40% 30.11 in 10.0 mi East 12.7 mph - N/A   Clear
5:52 PM 72.0 °F - 48.0 °F 43% 30.10 in 10.0 mi East 13.8 mph - N/A   Clear
6:52 PM 73.0 °F - 48.9 °F 42% 30.09 in 10.0 mi East 16.1 mph 24.2 mph N/A   Mostly Cloudy
7:52 PM 71.1 °F - 48.9 °F 45% 30.09 in 10.0 mi ESE 13.8 mph - N/A   Clear
8:52 PM 66.9 °F - 50.0 °F 54% 30.10 in 10.0 mi East 13.8 mph - N/A   Clear
9:52 PM 64.9 °F - 48.9 °F 56% 30.12 in 10.0 mi ESE 11.5 mph 21.9 mph N/A   Scattered Clouds
10:52 PM 63.0 °F - 50.0 °F 63% 30.13 in 10.0 mi SSE 4.6 mph - N/A   Mostly Cloudy
11:52 PM 61.0 °F - 51.1 °F 70% 30.14 in 10.0 mi SSW 4.6 mph - N/A   Overcast